Regional Weather Roundup
Issued by NWS Cleveland, OH

Home | Current Version | Previous Version | Text Only | Print | Product List | Glossary Off
Versions: 1 2 3 4 5 6 7 8 9 10 11 12 13 14 15 16 17 18 19 20 21 22 23 24 25 26 27 28 29 30 31 32 33 34 35 36 37 38 39 40 41 42 43 44 45 46 47 48 49 50

000
ASUS41 KCLE 291702
RWRCLE
OHIO REGIONAL WEATHER ROUNDUP
NATIONAL WEATHER SERVICE CLEVELAND, OH
100 PM EDT FRI APR 29 2016

NOTE: "FAIR" INDICATES FEW OR NO CLOUDS BELOW 12,000 FEET WITH NO
SIGNIFICANT WEATHER AND/OR OBSTRUCTIONS TO VISIBILITY.

OHZ001>008-015>018-024>027-034-035-043-044-291800-
   NORTHWEST OHIO

CITY           SKY/WX    TMP DP  RH WIND       PRES   REMARKS
DEFIANCE       CLOUDY    51  42  71 NW8       30.06F
FINDLAY        CLOUDY    52  41  66 N8        30.05R
TOLEDO EXPRESS CLOUDY    52  37  56 VRB5G16   30.06F
TOLEDO EXEC    CLOUDY    52  38  58 NE7       30.07F
LIMA           LGT RAIN  49  46  90 N9        30.05S FOG
$$

OHZ009>014-019>023-028>033-038-089-291800-
   NORTHEAST OHIO

CITY           SKY/WX    TMP DP  RH WIND       PRES   REMARKS
CLE-HOPKINS    CLOUDY    48  45  89 W6        30.05F FOG
CLE-LAKEFRONT  LGT RAIN  47  44  90 N5        30.03R
CUY CO. ARPT   CLOUDY    48  46  93 W9        30.03R FOG
LORAIN-ELYRIA  CLOUDY    47  42  83 N7        30.03F
ASHTABULA      CLOUDY    44  43  96 N5        30.03R
AKRON-CANTON   DRIZZLE   51  47  86 W8        30.00S FOG
WOOSTER        CLOUDY    50  47  89 NW13      30.01F FOG
MANSFIELD      CLOUDY    48  47  96 NW10      30.02F FOG
YOUNGSTOWN     CLOUDY    49  45  86 W6        30.01R
$$

OHZ042-051>053-060>062-070>072-077>081-291800-
  SOUTHWEST OHIO

CITY           SKY/WX    TMP DP  RH WIND       PRES   REMARKS
CINC-COVINGTON PTSUNNY   66  49  54 NW10G20   30.04S
CINC-LUNKEN    PTSUNNY   65  52  62 W9        30.04S
HAMILTON       CLOUDY    64  52  64 VRB3      30.04S
DAYTON         CLOUDY    54  50  86 NW8       30.06R
WRIGHT-PAT AFB CLOUDY    57  51  79 W7        30.04R
DAYTON GENERAL MOSUNNY   60  51  72 NW9       30.03S
WILMINGTON     PTSUNNY   59  53  80 NW9       30.03S HAZE
$$

OHZ036-037-039>041-045>050-054>059-063>069-073>076-082>088-291800-
  CENTRAL AND SOUTHEAST OHIO

CITY           SKY/WX    TMP DP  RH WIND       PRES   REMARKS
COLUMBUS       CLOUDY    52  47  83 N8        30.02F
OSU AIRPORT    CLOUDY    52  47  83 CALM      30.02F
BOLTON FIELD   CLOUDY    54  48  82 NW6       30.03F
RICKENBACK AFB CLOUDY    53  49  86 NW3       30.03S
NEWARK         CLOUDY    55  48  77 NW6       30.02S
MARION         CLOUDY    53  47  79 N8        30.03F
LANCASTER      CLOUDY    56  50  80 W6        30.02S
ZANESVILLE     CLOUDY    59  50  72 W9        30.00S
NEW PHILLY     CLOUDY    54  48  80 W6        30.01F
$$



USA.gov is the U.S. government's official web portal to all federal, state and local government web resources and services.